LVMGN SAVE-SAVC

Flight info

Callsign LVMGN
Flight time 1h 1m
Altitude 29000
Route SAWS DCT USTOX UW50 VUKNA VUKNA1U
Aircraft SF50/L-SDGRWY/L

Departure

Time 2026-04-28 22:37
Airport Esquel Brigadier Antonio Parodi International Airport (SAVE)

Arrival

Time 2026-04-28 23:38
Airport General Enrique Mosconi International Airport (SAVC)
Time Latitude Longitude Altitude Speed Heading
2026-04-28 22:26 -42.90659 -71.14603 2623 ft 0 kts
2026-04-28 22:31 -42.90653 -71.14606 2623 ft 2 kts 293°
2026-04-28 22:31 -42.90668 -71.14630 2623 ft 4 kts 237°
2026-04-28 22:31 -42.90688 -71.14671 2624 ft 5 kts 233°
2026-04-28 22:31 -42.90724 -71.14721 2625 ft 8 kts 221°
2026-04-28 22:32 -42.90772 -71.14772 2626 ft 8 kts 214°
2026-04-28 22:32 -42.90833 -71.14803 2626 ft 10 kts 191°
2026-04-28 22:32 -42.90913 -71.14831 2627 ft 13 kts 197°
2026-04-28 22:32 -42.91003 -71.14868 2629 ft 13 kts 207°
2026-04-28 22:33 -42.91082 -71.14915 2630 ft 12 kts 195°
2026-04-28 22:33 -42.91158 -71.14908 2632 ft 11 kts 139°
2026-04-28 22:33 -42.91179 -71.14802 2630 ft 13 kts 93°
2026-04-28 22:33 -42.91180 -71.14665 2628 ft 15 kts 92°
2026-04-28 22:34 -42.91185 -71.14503 2624 ft 18 kts 89°
2026-04-28 22:34 -42.91186 -71.14305 2618 ft 22 kts 93°
2026-04-28 22:34 -42.91185 -71.14074 2611 ft 26 kts 89°
2026-04-28 22:34 -42.91184 -71.13824 2607 ft 25 kts 89°
2026-04-28 22:35 -42.91184 -71.13666 2604 ft 10 kts 88°
2026-04-28 22:35 -42.91189 -71.13573 2601 ft 6 kts 209°
2026-04-28 22:35 -42.91191 -71.13597 2602 ft 0 kts 262°
2026-04-28 22:36 -42.91188 -71.13869 2608 ft 63 kts 271°
2026-04-28 22:36 -42.91180 -71.14696 2729 ft 99 kts 268°
2026-04-28 22:37 -42.91184 -71.15646 3022 ft 100 kts 266°
2026-04-28 22:37 -42.91159 -71.16597 3306 ft 102 kts 266°
2026-04-28 22:37 -42.91231 -71.17551 3606 ft 101 kts 261°
2026-04-28 22:37 -42.91361 -71.18494 3871 ft 105 kts 244°
2026-04-28 22:38 -42.91951 -71.19081 4175 ft 114 kts 199°
2026-04-28 22:38 -42.92752 -71.18829 4460 ft 128 kts 154°
2026-04-28 22:38 -42.93292 -71.17810 4688 ft 144 kts 117°
2026-04-28 22:38 -42.93737 -71.16535 4975 ft 153 kts 124°
2026-04-28 22:39 -42.94318 -71.15274 5275 ft 162 kts 129°
2026-04-28 22:39 -42.95039 -71.14001 5577 ft 176 kts 136°
2026-04-28 22:39 -42.95860 -71.12727 5866 ft 186 kts 139°
2026-04-28 22:39 -42.96783 -71.11410 6143 ft 195 kts 139°
2026-04-28 22:40 -42.97762 -71.10078 6426 ft 201 kts 140°
2026-04-28 22:40 -42.98775 -71.08744 6689 ft 206 kts 141°
2026-04-28 22:40 -42.99822 -71.07393 6970 ft 209 kts 141°
2026-04-28 22:40 -43.00874 -71.06041 7238 ft 211 kts 143°
2026-04-28 22:41 -43.01956 -71.04661 7516 ft 213 kts 142°
2026-04-28 22:41 -43.03045 -71.03275 7785 ft 214 kts 142°
2026-04-28 22:41 -43.04150 -71.01871 8063 ft 216 kts 142°
2026-04-28 22:41 -43.05247 -71.00478 8342 ft 218 kts 142°
2026-04-28 22:42 -43.06402 -70.99013 8632 ft 234 kts 141°
2026-04-28 22:42 -43.07621 -70.97467 8915 ft 249 kts 141°
2026-04-28 22:42 -43.08925 -70.95806 9196 ft 262 kts 141°
2026-04-28 22:42 -43.10271 -70.94093 9473 ft 271 kts 141°
2026-04-28 22:43 -43.11672 -70.92306 9751 ft 279 kts 140°
2026-04-28 22:43 -43.13113 -70.90469 10033 ft 285 kts 140°
2026-04-28 22:43 -43.14565 -70.88618 10311 ft 289 kts 140°
2026-04-28 22:43 -43.16049 -70.86723 10620 ft 292 kts 140°
2026-04-28 22:44 -43.17538 -70.84820 10898 ft 295 kts 139°
2026-04-28 22:44 -43.19028 -70.82917 11237 ft 295 kts 139°
2026-04-28 22:44 -43.20536 -70.80990 11519 ft 296 kts 139°
2026-04-28 22:46 -43.29941 -70.68930 13255 ft 300 kts 139°
2026-04-28 22:46 -43.31502 -70.66924 13538 ft 300 kts 139°
2026-04-28 22:46 -43.32366 -70.65813 13695 ft 300 kts 139°
2026-04-28 22:46 -43.33896 -70.63844 13972 ft 300 kts 139°
2026-04-28 22:47 -43.35419 -70.61883 14249 ft 300 kts 139°
2026-04-28 22:47 -43.36926 -70.59942 14523 ft 300 kts 139°
2026-04-28 22:47 -43.38447 -70.57980 14800 ft 299 kts 139°
2026-04-28 22:47 -43.39970 -70.56015 15078 ft 299 kts 139°
2026-04-28 22:48 -43.41465 -70.54085 15352 ft 299 kts 139°
2026-04-28 22:48 -43.42988 -70.52116 15619 ft 299 kts 139°
2026-04-28 22:48 -43.44492 -70.50172 15895 ft 298 kts 139°
2026-04-28 22:48 -43.45995 -70.48227 16171 ft 298 kts 140°
2026-04-28 22:49 -43.47496 -70.46283 16447 ft 297 kts 140°
2026-04-28 22:49 -43.48997 -70.44337 16728 ft 297 kts 140°
2026-04-28 22:49 -43.50506 -70.42380 17011 ft 296 kts 140°
2026-04-28 22:49 -43.51997 -70.40444 17288 ft 296 kts 140°
2026-04-28 22:50 -43.53505 -70.38486 17570 ft 295 kts 140°
2026-04-28 22:50 -43.54983 -70.36565 17845 ft 295 kts 140°
2026-04-28 22:50 -43.56467 -70.34635 18121 ft 294 kts 139°
2026-04-28 22:50 -43.57959 -70.32693 18395 ft 293 kts 139°
2026-04-28 22:51 -43.59433 -70.30773 18665 ft 293 kts 140°
2026-04-28 22:51 -43.60910 -70.28849 18939 ft 292 kts 140°
2026-04-28 22:51 -43.62391 -70.26917 19213 ft 292 kts 140°
2026-04-28 22:51 -43.63850 -70.25012 19484 ft 291 kts 140°
2026-04-28 22:52 -43.65311 -70.23104 19755 ft 290 kts 140°
2026-04-28 22:52 -43.66784 -70.21178 20030 ft 289 kts 140°
2026-04-28 22:52 -43.68240 -70.19274 20302 ft 289 kts 140°
2026-04-28 22:52 -43.69683 -70.17385 20573 ft 288 kts 140°
2026-04-28 22:53 -43.71124 -70.15498 20845 ft 287 kts 140°
2026-04-28 22:53 -43.72566 -70.13609 21117 ft 286 kts 140°
2026-04-28 22:53 -43.74031 -70.11687 21394 ft 286 kts 140°
2026-04-28 22:53 -43.75449 -70.09824 21664 ft 285 kts 140°
2026-04-28 22:54 -43.76889 -70.07934 21938 ft 284 kts 140°
2026-04-28 22:54 -43.78318 -70.06055 22212 ft 283 kts 141°
2026-04-28 22:54 -43.79739 -70.04186 22484 ft 282 kts 141°
2026-04-28 22:54 -43.81150 -70.02329 22756 ft 281 kts 141°
2026-04-28 22:55 -43.82563 -70.00468 23030 ft 280 kts 141°
2026-04-28 22:55 -43.83968 -69.98616 23302 ft 279 kts 141°
2026-04-28 22:55 -43.85362 -69.96777 23574 ft 278 kts 141°
2026-04-28 22:55 -43.86762 -69.94930 23848 ft 277 kts 141°
2026-04-28 22:56 -43.88147 -69.93099 24120 ft 276 kts 141°
2026-04-28 22:56 -43.89535 -69.91266 24393 ft 275 kts 141°
2026-04-28 22:56 -43.90906 -69.89452 24665 ft 274 kts 141°
2026-04-28 22:56 -43.92276 -69.87640 24937 ft 272 kts 141°
2026-04-28 22:57 -43.93638 -69.85836 25209 ft 271 kts 141°
2026-04-28 22:57 -43.94999 -69.84032 25482 ft 270 kts 142°
2026-04-28 22:57 -43.96357 -69.82231 25756 ft 269 kts 142°
2026-04-28 22:57 -43.97698 -69.80452 26028 ft 267 kts 142°
2026-04-28 22:58 -43.99031 -69.78681 26300 ft 266 kts 142°
2026-04-28 22:58 -44.00361 -69.76916 26572 ft 265 kts 142°
2026-04-28 22:58 -44.01689 -69.75149 26845 ft 263 kts 142°
2026-04-28 22:58 -44.02987 -69.73422 27114 ft 262 kts 142°
2026-04-28 22:59 -44.04302 -69.71671 27388 ft 260 kts 142°
2026-04-28 22:59 -44.05599 -69.69944 27659 ft 258 kts 142°
2026-04-28 22:59 -44.06879 -69.68237 27929 ft 257 kts 142°
2026-04-28 22:59 -44.08163 -69.66525 28201 ft 255 kts 142°
2026-04-28 23:00 -44.09444 -69.64816 28400 ft 256 kts 142°
2026-04-28 23:00 -44.10751 -69.63074 28428 ft 265 kts 142°
2026-04-28 23:00 -44.12100 -69.61274 28432 ft 273 kts 142°
2026-04-28 23:00 -44.13479 -69.59430 28431 ft 281 kts 142°
2026-04-28 23:01 -44.14908 -69.57518 28431 ft 287 kts 142°
2026-04-28 23:01 -44.16362 -69.55569 28431 ft 293 kts 142°
2026-04-28 23:01 -44.17839 -69.53588 28430 ft 297 kts 142°
2026-04-28 23:02 -44.20857 -69.49539 28430 ft 305 kts 141°
2026-04-28 23:02 -44.23925 -69.45415 28430 ft 310 kts 141°
2026-04-28 23:03 -44.27023 -69.41245 28429 ft 314 kts 141°
2026-04-28 23:03 -44.30186 -69.36982 28429 ft 316 kts 141°
2026-04-28 23:04 -44.33342 -69.32721 28406 ft 318 kts 141°
2026-04-28 23:04 -44.38129 -69.26245 28334 ft 322 kts 141°
2026-04-28 23:05 -44.41334 -69.21900 28299 ft 322 kts 141°
2026-04-28 23:05 -44.44549 -69.17535 28275 ft 323 kts 140°
2026-04-28 23:06 -44.47764 -69.13165 28264 ft 323 kts 140°
2026-04-28 23:06 -44.50963 -69.08807 28263 ft 322 kts 141°
2026-04-28 23:07 -44.54172 -69.04429 28263 ft 322 kts 141°
2026-04-28 23:07 -44.57368 -69.00062 28263 ft 321 kts 141°
2026-04-28 23:08 -44.60554 -68.95702 28256 ft 321 kts 141°
2026-04-28 23:08 -44.63723 -68.91358 28263 ft 320 kts 141°
2026-04-28 23:09 -44.66900 -68.86996 28263 ft 319 kts 141°
2026-04-28 23:09 -44.70067 -68.82640 28263 ft 318 kts 141°
2026-04-28 23:10 -44.73210 -68.78311 28263 ft 318 kts 141°
2026-04-28 23:10 -44.76376 -68.73943 28262 ft 318 kts 141°
2026-04-28 23:11 -44.79509 -68.69614 28264 ft 318 kts 141°
2026-04-28 23:11 -44.82648 -68.65269 28263 ft 317 kts 141°
2026-04-28 23:12 -44.85792 -68.60909 28263 ft 317 kts 141°
2026-04-28 23:12 -44.88921 -68.56564 28262 ft 317 kts 141°
2026-04-28 23:13 -44.92047 -68.52216 28263 ft 315 kts 141°
2026-04-28 23:13 -44.93613 -68.50036 27982 ft 317 kts 141°
2026-04-28 23:13 -44.95186 -68.47884 27635 ft 319 kts 142°
2026-04-28 23:14 -44.96828 -68.45760 27283 ft 322 kts 143°
2026-04-28 23:14 -44.98500 -68.43616 26931 ft 324 kts 143°
2026-04-28 23:14 -45.00162 -68.41487 26584 ft 326 kts 143°
2026-04-28 23:14 -45.01832 -68.39348 26238 ft 328 kts 143°
2026-04-28 23:15 -45.03522 -68.37180 25890 ft 330 kts 143°
2026-04-28 23:15 -45.05219 -68.35004 25542 ft 331 kts 142°
2026-04-28 23:15 -45.06931 -68.32806 25193 ft 332 kts 142°
2026-04-28 23:15 -45.08632 -68.30619 24839 ft 333 kts 142°
2026-04-28 23:16 -45.10144 -68.28093 24471 ft 341 kts 124°
2026-04-28 23:16 -45.10998 -68.24966 24034 ft 343 kts 107°
2026-04-28 23:16 -45.11420 -68.21653 23461 ft 344 kts 100°
2026-04-28 23:16 -45.11705 -68.18320 22889 ft 343 kts 98°
2026-04-28 23:17 -45.11952 -68.14973 22315 ft 342 kts 97°
2026-04-28 23:17 -45.12186 -68.11646 21741 ft 341 kts 97°
2026-04-28 23:17 -45.12416 -68.08337 21170 ft 340 kts 97°
2026-04-28 23:17 -45.12644 -68.05030 20597 ft 338 kts 97°
2026-04-28 23:18 -45.12872 -68.01714 20023 ft 337 kts 97°
2026-04-28 23:18 -45.13097 -67.98422 19448 ft 336 kts 97°
2026-04-28 23:18 -45.13319 -67.95153 18877 ft 334 kts 97°
2026-04-28 23:18 -45.13540 -67.91885 18302 ft 333 kts 97°
2026-04-28 23:19 -45.13858 -67.88699 17719 ft 331 kts 107°
2026-04-28 23:19 -45.14846 -67.85802 17131 ft 322 kts 127°
2026-04-28 23:19 -45.16212 -67.83384 16561 ft 314 kts 134°
2026-04-28 23:19 -45.17694 -67.81142 15984 ft 309 kts 137°
2026-04-28 23:20 -45.19184 -67.78994 15411 ft 306 kts 137°
2026-04-28 23:20 -45.20681 -67.76868 14834 ft 303 kts 138°
2026-04-28 23:20 -45.22140 -67.74802 14269 ft 301 kts 138°
2026-04-28 23:20 -45.23624 -67.72706 13691 ft 299 kts 138°
2026-04-28 23:21 -45.25075 -67.70655 13122 ft 297 kts 137°
2026-04-28 23:21 -45.26528 -67.68600 12551 ft 296 kts 137°
2026-04-28 23:21 -45.27990 -67.66531 11972 ft 295 kts 137°
2026-04-28 23:21 -45.29430 -67.64492 11401 ft 294 kts 137°
2026-04-28 23:22 -45.30863 -67.62462 10829 ft 293 kts 137°
2026-04-28 23:22 -45.31828 -67.61095 10444 ft 292 kts 137°
2026-04-28 23:22 -45.33730 -67.58398 9730 ft 288 kts 136°
2026-04-28 23:22 -45.35106 -67.56444 9168 ft 281 kts 136°
2026-04-28 23:23 -45.36470 -67.54500 8601 ft 275 kts 137°
2026-04-28 23:23 -45.37808 -67.52605 8040 ft 270 kts 137°
2026-04-28 23:23 -45.39109 -67.50759 7768 ft 255 kts 137°
2026-04-28 23:23 -45.40338 -67.49016 7517 ft 245 kts 138°
2026-04-28 23:24 -45.41518 -67.47343 7263 ft 238 kts 137°
2026-04-28 23:24 -45.42681 -67.45689 7015 ft 232 kts 137°
2026-04-28 23:24 -45.43797 -67.44104 6881 ft 223 kts 137°
2026-04-28 23:24 -45.44875 -67.42570 6756 ft 217 kts 138°
2026-04-28 23:25 -45.45927 -67.41074 6631 ft 211 kts 138°
2026-04-28 23:25 -45.46958 -67.39607 6505 ft 208 kts 137°
2026-04-28 23:25 -45.47966 -67.38171 6383 ft 205 kts 137°
2026-04-28 23:25 -45.48973 -67.36730 6257 ft 203 kts 137°
2026-04-28 23:26 -45.49969 -67.35307 6131 ft 202 kts 137°
2026-04-28 23:26 -45.50945 -67.33910 6007 ft 200 kts 136°
2026-04-28 23:26 -45.51941 -67.32486 5819 ft 203 kts 136°
2026-04-28 23:26 -45.52942 -67.31050 5621 ft 205 kts 136°
2026-04-28 23:27 -45.53945 -67.29611 5423 ft 206 kts 137°
2026-04-28 23:27 -45.54954 -67.28165 5224 ft 206 kts 137°
2026-04-28 23:27 -45.55966 -67.26715 5023 ft 207 kts 137°
2026-04-28 23:27 -45.56976 -67.25262 4824 ft 206 kts 137°
2026-04-28 23:28 -45.57990 -67.23804 4622 ft 205 kts 137°
2026-04-28 23:28 -45.58991 -67.22365 4422 ft 205 kts 137°
2026-04-28 23:28 -45.59993 -67.20924 4221 ft 204 kts 137°
2026-04-28 23:28 -45.60988 -67.19493 4019 ft 205 kts 136°
2026-04-28 23:29 -45.61993 -67.18047 3821 ft 206 kts 136°
2026-04-28 23:29 -45.63009 -67.16585 3620 ft 206 kts 136°
2026-04-28 23:29 -45.64020 -67.15128 3419 ft 205 kts 136°
2026-04-28 23:29 -45.65066 -67.13769 3208 ft 203 kts 152°
2026-04-28 23:30 -45.66413 -67.13374 3009 ft 197 kts 180°
2026-04-28 23:30 -45.67738 -67.13702 2747 ft 197 kts 200°
2026-04-28 23:30 -45.68998 -67.14484 2471 ft 198 kts 206°
2026-04-28 23:30 -45.70220 -67.15389 2196 ft 198 kts 208°
2026-04-28 23:31 -45.71431 -67.16316 2021 ft 193 kts 208°
2026-04-28 23:31 -45.72574 -67.17197 2002 ft 183 kts 210°
2026-04-28 23:31 -45.73672 -67.18047 2002 ft 175 kts 210°
2026-04-28 23:31 -45.74512 -67.19244 2001 ft 167 kts 239°
2026-04-28 23:32 -45.74926 -67.20641 2018 ft 143 kts 250°
2026-04-28 23:32 -45.75187 -67.21942 1998 ft 127 kts 254°
2026-04-28 23:32 -45.75380 -67.23097 1995 ft 113 kts 257°
2026-04-28 23:32 -45.75539 -67.24131 1996 ft 101 kts 258°
2026-04-28 23:33 -45.75680 -67.25122 2003 ft 102 kts 256°
2026-04-28 23:33 -45.75820 -67.26124 2005 ft 102 kts 258°
2026-04-28 23:33 -45.75956 -67.27137 2003 ft 104 kts 256°
2026-04-28 23:33 -45.76093 -67.28149 2006 ft 104 kts 257°
2026-04-28 23:34 -45.76231 -67.29172 2006 ft 104 kts 259°
2026-04-28 23:34 -45.76367 -67.30197 2003 ft 104 kts 258°
2026-04-28 23:34 -45.76503 -67.31223 2002 ft 105 kts 256°
2026-04-28 23:34 -45.76647 -67.32298 1891 ft 114 kts 259°
2026-04-28 23:35 -45.76799 -67.33456 1748 ft 122 kts 257°
2026-04-28 23:35 -45.76960 -67.34671 1591 ft 128 kts 257°
2026-04-28 23:35 -45.77131 -67.35950 1419 ft 131 kts 258°
2026-04-28 23:35 -45.77299 -67.37226 1286 ft 121 kts 259°
2026-04-28 23:36 -45.77437 -67.38279 1125 ft 99 kts 257°
2026-04-28 23:36 -45.77559 -67.39201 978 ft 90 kts 259°
2026-04-28 23:36 -45.77672 -67.40061 855 ft 88 kts 259°
2026-04-28 23:36 -45.77786 -67.40926 735 ft 88 kts 258°
2026-04-28 23:37 -45.77900 -67.41789 616 ft 88 kts 258°
2026-04-28 23:37 -45.78015 -67.42651 499 ft 87 kts 257°
2026-04-28 23:37 -45.78141 -67.43474 410 ft 78 kts 258°
2026-04-28 23:37 -45.78233 -67.44231 260 ft 75 kts 259°
2026-04-28 23:38 -45.78313 -67.44939 164 ft 70 kts 257°
2026-04-28 23:38 -45.78394 -67.45554 160 ft 52 kts 259°
2026-04-28 23:38 -45.78450 -67.46001 160 ft 39 kts 260°
2026-04-28 23:38 -45.78494 -67.46335 160 ft 30 kts 257°
2026-04-28 23:39 -45.78529 -67.46596 160 ft 23 kts 257°
2026-04-28 23:39 -45.78567 -67.46789 160 ft 17 kts 217°
2026-04-28 23:39 -45.78669 -67.46803 160 ft 13 kts 179°
2026-04-28 23:39 -45.78751 -67.46802 160 ft 10 kts 179°
2026-04-28 23:40 -45.78813 -67.46800 160 ft 7 kts 178°
2026-04-28 23:40 -45.78859 -67.46796 160 ft 5 kts 177°
2026-04-28 23:40 -45.78889 -67.46794 160 ft 3 kts 178°
2026-04-28 23:40 -45.78908 -67.46793 160 ft 2 kts 178°
2026-04-28 23:41 -45.78928 -67.46793 160 ft 3 kts 177°
2026-04-28 23:41 -45.78947 -67.46805 160 ft 3 kts 216°
2026-04-28 23:41 -45.78953 -67.46812 160 ft 0 kts 219°